Location: Drocourt
(49.0571°N, 1.7669°E)
Time: 15:39:39
(UTC+00:00)

Vanguard 2 Rocket - Pass Details

Date: 20 April 2024
Orbit: 556 x 3304 km, 32.9° (Epoch: 22 May)

Event Time Altitude Azimuth Distance (km) Brightness Sun altitude
Rises 19:29:59 0° 202° (SSW) 5,852 11.0 -6.4°
Reaches altitude 10° 19:34:26 10° 190° (S) 5,232 10.6 -7.0°
Maximum altitude 19:46:44 26° 142° (SE) 4,737 10.0 -8.8°
Drops below altitude 10° 20:01:14 10° 95° (E) 6,258 10.6 -10.8°
Sets 20:07:13 0° 85° (E) 7,191 11.0 -11.6°
